Regional Weather Roundup
Issued by NWS

Home | Current Version | Previous Version | Graphics & Text | Print | Product List | Glossary On
Versions: 1 2 3 4 5 6 7 8 9 10 11 12 13 14 15 16 17 18 19 20 21 22 23 24 25 26 27 28 29 30 31 32 33 34 35 36 37 38 39 40 41 42 43 44 45 46 47 48 49 50
166
ASUS45 KSLC 300210
RWRUT

UTAH REGIONAL WEATHER ROUNDUP
NATIONAL WEATHER SERVICE SALT LAKE CITY UT
800 PM MDT SAT APR 29 2017

UTZ001>011-023>025-300300-

NORTHERN UTAH

CITY           SKY/WX    TMP DP  RH WIND       PRES   REMARKS
BRIGHAM CITY   CLEAR     54  25  32 W3        30.18R
HILL AFB       CLEAR     52  22  31 NW6       30.17S
LOGAN          CLEAR     51  31  46 W3        30.17S
OGDEN          CLEAR     49  26  41 NW5       30.17R
SALT LAKE CITY PTCLDY    52  33  48 W8        30.17S
TOOELE VALLEY  CLEAR     48  32  53 CALM      30.19S
WENDOVER       CLEAR     55  25  31 SE6       30.17S
HEBER CITY     CLEAR     43  19  39 N9        30.17R
WEST JORDAN    CLEAR     53  35  50 NW6       30.18S

$$

UTZ011>015-024>027-300300-

CENTRAL/NORTHEAST UTAH

CITY           SKY/WX    TMP DP  RH WIND       PRES   REMARKS
PROVO AIRPORT  CLEAR     51  26  37 NW14      30.16S
MOAB/CANYONLAN CLEAR     54  15  21 NE14      30.04R
DELTA          CLEAR     52  18  25 N13       30.16R
PRICE          CLEAR     48  16  27 NW15G25   30.08R
ROOSEVELT      CLEAR     48  18  29 SE8       30.14R
VERNAL         CLEAR     45  16  31 NE13      30.15R

$$

UTZ013>016-019>022-027-300300-

SOUTHERN UTAH

CITY           SKY/WX    TMP DP  RH WIND       PRES   REMARKS
BRYCE CANYON   CLEAR     42  11  28 N20       30.15R
CEDAR CITY     CLEAR     49  20  31 N13G22    30.15R
MILFORD        CLEAR     53  21  28 N18       30.15R
ST GEORGE      CLEAR     66  21  18 NE23G30   30.05S
HANKSVILLE     PTCLDY    55  16  21 NE13      30.07R
BLANDING       CLEAR     46  16  29 N13G23    30.12R

$$

REGIONAL REPORTS     COLORADO/ARIZONA

CITY           SKY/WX    TMP DP  RH WIND       PRES   REMARKS
CRAIG, CO      MOCLDY    40  20  44 N16G25    30.11R WCI  31
GRAND JUNCTION PTCLDY    49  19  30 N23       30.07R
RIFLE, CO      CLOUDY    44  26  49 E10       30.09R
MONTROSE, CO   CLOUDY    46  25  43 NW14      30.05R
CORTEZ, CO     CLOUDY    45  22  40 N13G29    30.01R
COLORADO CITY    N/A     59  19  21 NW13      30.12R
PAGE, AZ       CLEAR     62  17  17 CALM      30.01R
GRAND CANYON   CLOUDY    51  11  20 N10G18    30.09R
KINGMAN, AZ    CLEAR     66  16  14 N16       30.04S
FLAGSTAFF, AZ  PTCLDY    47   8  20 NE8       30.09R

$$

REGIONAL REPORTS    NEVADA/IDAHO/WYOMING

CITY           SKY/WX    TMP DP  RH WIND       PRES   REMARKS
LAS VEGAS, NV  CLEAR     76   9   7 NE12      30.00R
ELY, NY        CLEAR     51  15  23 N10       30.18S
ELKO, NV       CLEAR     53  24  32 SW9       30.19R
POCATELLO, ID  CLEAR     52  27  38 SW12      30.17S
BURLEY, ID     PTCLDY    52  19  27 W9        30.16S
FORT BRIDGER,    N/A     38  24  55 W6        30.22S WCI  34
EVANSTON, WY   CLEAR     38  21  50 CALM      30.20F
ROCK SPRINGS,  CLEAR     35  17  47 E5        30.18R WCI  31
KEMMERER, WY     N/A     36  23  60 NW6       30.18F WCI  31

$$




USA.gov is the U.S. government's official web portal to all federal, state and local government web resources and services.